EW9766 Weather Reports


Display with metric or nautical units.
time (UTC)temp
F
wind
direction
speed
MPH
gust
MPH
rain 1hr
in
rain 24hr
in
rain mn
in
humidity
%
barometer
mb
20260905054535 50 171 2.0 4.0 0.00 0.02 0.02 91 1017.9
20260905053030 50 171 3.0 6.0 0.00 0.02 0.02 91 1017.9
20260905051532 50 164 2.0 5.0 0.00 0.02 0.02 91 1017.8
20260905044531 50 173 3.0 4.0 0.00 0.02 0.02 90 1017.7
20260905043036 50 136 3.0 4.0 0.00 0.02 0.02 90 1017.5
20260905041535 50 175 2.0 4.0 0.00 0.02 0.02 89 1017.5
20260905040031 51 177 2.0 4.0 0.00 0.02 0.02 89 1017.3
20260905034537 50 162 2.0 3.0 0.00 0.02 0.02 88 1017.2
20260905031533 51 180 3.0 4.0 0.00 0.02 0.02 86 1017.0
20260905030032 52 208 2.0 4.0 0.00 0.02 0.02 85 1017.0
20260905024536 53 312 0.0 1.0 0.00 0.02 0.02 83 1017.0
20260905023032 53 336 1.0 3.0 0.00 0.02 0.02 82 1017.1
20260905021537 55 337 0.0 1.0 0.00 0.02 0.02 79 1016.9
20260905020036 56 337 1.0 2.0 0.00 0.02 0.02 78 1016.7
20260905013029 57 337 1.0 4.0 0.00 0.02 0.02 78 1016.4
20260905011534 57 337 2.0 3.0 0.00 0.02 0.02 78 1016.5
20260905010142 57 322 0.0 3.0 0.00 0.02 0.02 77 1016.3
20260905003107 57 292 0.0 3.0 0.00 0.02 0.02 79 1016.2
20260905001532 57 286 1.0 4.0 0.00 0.02 0.02 81 1016.1
20260905000106 57 254 1.0 4.0 0.00 0.02 0.02 80 1016.1
20260904233030 57 171 2.0 5.0 0.00 0.02 0.02 79 1016.0
20260904231643 58 148 2.0 5.0 0.00 0.02 0.02 78 1015.9
20260904224532 57 112 2.0 7.0 0.00 0.02 0.02 78 1015.8
20260904223031 56 73 3.0 6.0 0.00 0.02 0.02 80 1015.8
20260904221608 56 112 2.0 8.0 0.00 0.02 0.02 82 1015.8
20260904220035 56 138 2.0 6.0 0.00 0.02 0.02 84 1015.8
20260904214535 56 160 1.0 4.0 0.00 0.02 0.02 84 1015.8
20260904213035 56 76 1.0 4.0 0.00 0.02 0.02 84 1015.8
20260904211641 57 348 2.0 5.0 0.00 0.02 0.02 84 1015.6
20260904210034 57 270 0.0 4.0 0.00 0.02 0.02 85 1015.5
20260904204536 56 282 1.0 5.0 0.00 0.02 0.02 85 1015.4
20260904203034 55 332 1.0 4.0 0.00 0.02 0.02 86 1015.4
20260904201529 55 360 0.0 2.0 0.00 0.02 0.02 86 1015.6
20260904200036 55 314 2.0 5.0 0.00 0.02 0.02 85 1015.6
20260904194536 56 325 3.0 6.0 0.00 0.02 0.02 85 1015.6
20260904193034 56 309 2.0 6.0 0.00 0.02 0.02 86 1015.7
20260904191531 55 309 2.0 7.0 0.00 0.02 0.02 87 1015.7
20260904190030 55 309 2.0 6.0 0.00 0.02 0.02 86 1015.7
20260904184606 55 301 1.0 3.0 0.00 0.02 0.02 87 1015.7
20260904181532 55 284 1.0 4.0 0.00 0.02 0.02 88 1015.6
20260904180051 56 267 3.0 7.0 0.00 0.02 0.02 92 1015.5
20260904173036 50 337 0.0 1.0 0.00 0.02 0.02 95 1015.3
20260904171535 49 337 0.0 1.0 0.00 0.02 0.02 95 1015.5
20260904170035 50 337 1.0 3.0 0.01 0.02 0.02 95 1015.3
20260904164534 51 323 2.0 4.0 0.01 0.02 0.02 95 1015.2
20260904161531 51 322 1.0 5.0 0.01 0.02 0.01 96 1015.1
20260904160105 49 330 2.0 4.0 0.00 0.01 0.01 96 1015.0
20260904154608 49 337 2.0 3.0 0.00 0.01 0.01 96 1014.9
20260904153034 49 227 0.0 3.0 0.00 0.01 0.01 96 1014.7
20260904151539 48 195 1.0 3.0 0.00 0.01 0.01 96 1014.6
20260904150106 47 153 2.0 5.0 0.00 0.01 0.01 96 1014.4
20260904144539 46 135 2.0 4.0 0.00 0.01 0.01 96 1014.4
20260904143034 46 147 2.0 4.0 0.00 0.01 0.01 96 1014.3
20260904141531 46 168 2.0 4.0 0.00 0.01 0.01 96 1014.1
20260904140032 45 164 2.0 4.0 0.00 0.01 0.01 96 1013.9
20260904134535 45 157 3.0 5.0 0.00 0.01 0.01 96 1013.8
20260904133036 45 136 3.0 5.0 0.00 0.01 0.01 96 1013.7
20260904131530 45 136 3.0 4.0 0.00 0.01 0.01 96 1013.6
20260904130030 46 165 2.0 4.0 0.00 0.01 0.01 96 1013.4
20260904124606 46 180 2.0 3.0 0.01 0.01 0.01 96 1013.5
20260904123034 46 177 2.0 5.0 0.01 0.01 0.01 96 1013.4
20260904121531 46 145 3.0 4.0 0.01 0.01 0.01 96 1013.3
20260904113031 46 180 1.0 3.0 0.00 0.00 0.00 95 1013.1
20260904111535 46 180 0.0 3.0 0.00 0.00 0.00 95 1013.0
20260904110034 46 180 1.0 3.0 0.00 0.00 0.00 95 1012.8
20260904104531 46 157 1.0 4.0 0.00 0.00 0.00 95 1012.7
20260904103036 46 173 2.0 3.0 0.00 0.00 0.00 95 1012.6
20260904101608 46 157 2.0 4.0 0.00 0.00 0.00 95 1012.5
20260904100035 46 179 1.0 3.0 0.00 0.00 0.00 95 1012.4
20260904094532 46 181 2.0 4.0 0.00 0.00 0.00 95 1012.3
20260904093038 46 166 3.0 5.0 0.00 0.00 0.00 95 1012.3
20260904091530 46 141 4.0 5.0 0.00 0.00 0.00 95 1012.3
20260904090107 46 159 2.0 5.0 0.00 0.00 0.00 95 1012.3
20260904084609 45 178 4.0 8.0 0.00 0.00 0.00 95 1012.3
20260904083035 45 192 3.0 5.0 0.00 0.00 0.00 95 1012.1
20260904081530 45 176 3.0 7.0 0.00 0.00 0.00 95 1012.2
20260904080105 45 180 1.0 4.0 0.00 0.00 0.00 95 1012.2
20260904074531 46 180 2.0 3.0 0.00 0.00 0.00 95 1012.3
20260904073036 46 130 1.0 4.0 0.00 0.00 0.00 94 1012.2
20260904071535 46 192 1.0 4.0 0.00 0.00 0.00 94 1012.2
20260904070109 46 162 1.0 4.0 0.00 0.00 0.00 94 1012.1
20260904064535 46 157 0.0 2.0 0.00 0.00 0.00 94 1012.1
20260904063107 46 183 3.0 5.0 0.00 0.00 0.00 94 1012.1
20260904061535 46 201 3.0 6.0 0.00 0.00 0.00 94 1012.1